Location: Unspecified
(47.5840°N, 122.3000°W)
Time: 18:37:24
(UTC+00:00)

IRIDIUM 114 - Pass Details

Date: 14 March 2026
Orbit: 776 x 779 km, 86.4° (Epoch: 14 April)

Event Time Altitude Azimuth Distance (km) Brightness Sun altitude
Exits shadow 04:51:19 24° 32° (NNE) 1,591 5.9 -26.7°
Drops below altitude 10° 04:53:33 10° 17° (NNE) 2,342 6.9 -27.0°
Sets 04:56:01 0° 10° (N) 3,275 7.8 -27.4°
